Weather History for KDEN - October, 2012

Change the Weather History Date:

Wednesday, October 17, 2012

  Actual Average Record
Temperature  
Mean Temperature 45 °F 50 °F  
Max Temperature 57 °F 65 °F 86 °F (1926)
Min Temperature 33 °F 36 °F 18 °F (1969)
Degree Days  
Heating Degree Days 20 15  
Month to date heating degree days 251 198  
Since 1 July heating degree days 320 339  
Cooling Degree Days 0 0  
Month to date cooling degree days 1 1  
Year to date cooling degree days 1236 765  
Moisture  
Dew Point 9 °F    
Average Humidity 27    
Maximum Humidity 43    
Minimum Humidity 10    
Precipitation  
Precipitation 0.00 in 0.04 in 1.06 in (1993)
Month to date precipitation 0.55 0.61  
Year to date precipitation 8.90 12.93  
Snow  
Snow 0.00 in - - ()
Month to date snowfall 0.4  
Since 1 July snowfall 0.4  
Since 1 September snowfall 0.4  
Snow Depth 0.00 in    
Sea Level Pressure  
Sea Level Pressure 29.74 in    
Wind  
Wind Speed 16 mph (NW)    
Max Wind Speed 35 mph    
Max Gust Speed 41 mph    
Visibility 10 miles    
Events      
T = Trace of Precipitation, MM = Missing Value Source: NWS Daily Summary

Daily Weather History Graph

Daily Weather History Graph

Search for Another Location

Airport or City:

Trip Planner

Search our weather history database for the weather conditions in past years. The results will help you decide how hot, cold, wet, or windy it might be!

Date:

Astronomy

Oct. 17, 2012 Rise Set
Actual Time 7:11 AM MDT 6:15 PM MDT
Civil Twilight 6:44 AM MDT 6:42 PM MDT
Nautical Twilight 6:12 AM MDT 7:14 PM MDT
Astronomical Twilight 5:41 AM MDT 7:45 PM MDT
Moon 9:48 AM MDT (10/17) 7:54 PM MDT (10/17)
Length of Visible Light 11h 58m
Length of Day
11h 03m
Waxing Crescent, 7% of the Moon is Illuminated
Oct 17
Waxing Crescent
Oct 21
First Quarter
Oct 29
Full
Nov 6
Last Quarter
Nov 13
New

Hourly Weather History & Observations

Time (MDT) Temp. Windchill Dew Point Humidity Pressure Visibility Wind Dir Wind Speed Gust Speed Precip Events Conditions
12:53 AM 51.1 °F - 25.0 °F 36% 29.56 in 10.0 mi WSW 26.5 mph 32.2 mph N/A   Scattered Clouds
1:53 AM 52.0 °F - 21.0 °F 30% 29.57 in 10.0 mi SW 12.7 mph - N/A   Clear
2:53 AM 52.0 °F - 12.0 °F 20% 29.54 in 10.0 mi WNW 24.2 mph 32.2 mph N/A   Clear
3:53 AM 50.0 °F - 12.0 °F 22% 29.55 in 10.0 mi WNW 13.8 mph - N/A   Clear
4:53 AM 48.9 °F - 12.9 °F 24% 29.59 in 10.0 mi WNW 18.4 mph 26.5 mph N/A   Partly Cloudy
5:53 AM 48.9 °F - 9.0 °F 20% 29.64 in 10.0 mi WNW 23.0 mph 27.6 mph N/A   Partly Cloudy
6:53 AM 43.0 °F 41.3 °F 12.0 °F 28% 29.70 in 10.0 mi WNW 3.5 mph - N/A   Scattered Clouds
7:53 AM 46.9 °F - 9.0 °F 21% 29.73 in 10.0 mi NW 23.0 mph 32.2 mph N/A   Scattered Clouds
8:53 AM 48.0 °F - 10.0 °F 22% 29.77 in 10.0 mi WNW 24.2 mph 32.2 mph N/A   Scattered Clouds
9:53 AM 50.0 °F - 8.1 °F 18% 29.80 in 10.0 mi WNW 28.8 mph 36.8 mph N/A   Partly Cloudy
10:53 AM 50.0 °F - 7.0 °F 18% 29.79 in 10.0 mi WNW 26.5 mph 35.7 mph N/A   Partly Cloudy
11:53 AM 51.1 °F - 7.0 °F 17% 29.77 in 10.0 mi West 21.9 mph 35.7 mph N/A   Partly Cloudy
12:53 PM 54.0 °F - 7.0 °F 15% 29.76 in 10.0 mi WNW 24.2 mph 31.1 mph N/A   Partly Cloudy
1:53 PM 55.0 °F - 6.1 °F 14% 29.75 in 10.0 mi NW 21.9 mph 27.6 mph N/A   Partly Cloudy
2:53 PM 55.9 °F - 6.1 °F 14% 29.74 in 10.0 mi WNW 15.0 mph 25.3 mph N/A   Partly Cloudy
3:53 PM 57.0 °F - 1.9 °F 11% 29.72 in 10.0 mi WNW 18.4 mph 27.6 mph N/A   Partly Cloudy
4:53 PM 55.9 °F - 1.9 °F 11% 29.73 in 10.0 mi WNW 20.7 mph 26.5 mph N/A   Partly Cloudy
5:53 PM 53.1 °F - 5.0 °F 14% 29.76 in 10.0 mi NNW 9.2 mph - N/A   Partly Cloudy
6:53 PM 48.9 °F - 6.1 °F 18% 29.81 in 10.0 mi North 5.8 mph - N/A   Clear
7:53 PM 50.0 °F - 3.0 °F 15% 29.81 in 10.0 mi North 4.6 mph - N/A   Clear
8:53 PM 46.0 °F 42.5 °F 7.0 °F 20% 29.86 in 10.0 mi North 6.9 mph - N/A   Clear
9:53 PM 45.0 °F - 6.1 °F 20% 29.88 in 10.0 mi Calm Calm - N/A   Clear
10:53 PM 39.9 °F 33.9 °F 10.0 °F 29% 29.94 in 10.0 mi East 9.2 mph - N/A   Clear
11:53 PM 34.0 °F 24.6 °F 14.0 °F 44% 29.97 in 10.0 mi East 13.8 mph - N/A   Clear